Medford, OR

5:56 PM PDT on June 21, 2018 (GMT -0700)
Rogue Valley International-Medford

Weather History for KMFR - September, 2010

Change the Weather History Date:

Thursday, September 30, 2010

  Actual Average Record
Temperature  
Mean Temperature 74 °F 62 °F  
Max Temperature 95 °F 79 °F 98 °F (1987)
Min Temperature 53 °F 46 °F 29 °F (1950)
Degree Days  
Heating Degree Days 0 4  
Month to date heating degree days 43 60  
Since 1 July heating degree days 65 69  
Cooling Degree Days 9 1  
Month to date cooling degree days 95 112  
Year to date cooling degree days 769 819  
Growing Degree Days 24 (Base 50)    
Moisture  
Dew Point 51 °F    
Average Humidity 52    
Maximum Humidity 83    
Minimum Humidity 20    
Precipitation  
Precipitation 0.00 in 0.02 in 0.24 in (2013)
Month to date precipitation 0.79 0.57  
Year to date precipitation 13.00 10.71  
Snow  
Snow 0.00 in 0.00 in - ()
Month to date snowfall 0.0 0.0  
Since 1 July snowfall 0.0 0.0  
Snow Depth 0.00 in    
Sea Level Pressure  
Sea Level Pressure 29.78 in    
Wind  
Wind Speed 1 mph (South)    
Max Wind Speed 7 mph    
Max Gust Speed 8 mph    
Visibility 10 miles    
Events      
T = Trace of Precipitation, MM = Missing Value Source: NWS Daily Summary

Daily Weather History Graph

Daily Weather History Graph

Search for Another Location

Airport or City:

Astronomy

Sep. 30, 2010 Rise Set
Actual Time 7:07 AM PDT 6:54 PM PDT
Civil Twilight 6:39 AM PDT 7:22 PM PDT
Nautical Twilight 6:06 AM PDT 7:55 PM PDT
Astronomical Twilight 5:33 AM PDT 8:27 PM PDT
Moon 11:43 PM PDT (9/30) 2:25 PM PDT (9/30)
Length of Visible Light 12h 42m
Length of Day
11h 46m
Waning Gibbous, 54% of the Moon is Illuminated
Sep 30
Waning Gibbous
Sep 30
Last Quarter
Oct 7
New
Oct 14
First Quarter
Oct 22
Full

Hourly Weather History & Observations

Time (PDT) Temp. Heat Index Dew Point Humidity Pressure Visibility Wind Dir Wind Speed Gust Speed Precip Events Conditions
12:53 AM 66.0 °F - 53.1 °F 63% 29.82 in 10.0 mi Calm Calm - N/A   Clear
1:53 AM 63.0 °F - 52.0 °F 67% 29.82 in 10.0 mi Calm Calm - N/A   Clear
2:53 AM 59.0 °F - 52.0 °F 78% 29.82 in 10.0 mi Calm Calm - N/A   Clear
3:53 AM 59.0 °F - 51.1 °F 75% 29.81 in 10.0 mi South 3.5 mph - N/A   Clear
4:53 AM 57.0 °F - 50.0 °F 77% 29.81 in 10.0 mi Calm Calm - N/A   Clear
5:53 AM 54.0 °F - 48.9 °F 83% 29.82 in 10.0 mi Calm Calm - N/A   Clear
6:53 AM 55.0 °F - 48.9 °F 80% 29.83 in 10.0 mi Calm Calm - N/A   Clear
7:53 AM 55.0 °F - 48.0 °F 77% 29.84 in 10.0 mi Calm Calm - N/A   Clear
8:53 AM 59.0 °F - 48.9 °F 69% 29.84 in 10.0 mi Calm Calm - N/A   Clear
9:53 AM 63.0 °F - 51.1 °F 65% 29.84 in 10.0 mi Calm Calm - N/A   Clear
10:53 AM 69.1 °F - 52.0 °F 54% 29.82 in 10.0 mi Calm Calm - N/A   Clear
11:53 AM 73.9 °F - 53.1 °F 48% 29.79 in 10.0 mi Calm Calm - N/A   Clear
12:53 PM 80.1 °F - 52.0 °F 38% 29.76 in 10.0 mi Calm Calm - N/A   Clear
1:53 PM 84.9 °F - 48.9 °F 29% 29.73 in 10.0 mi Calm Calm - N/A   Clear
2:53 PM 89.1 °F - 46.0 °F 22% 29.70 in 10.0 mi Calm Calm - N/A   Clear
3:53 PM 91.0 °F - 45.0 °F 20% 29.69 in 10.0 mi Calm Calm - N/A   Clear
4:53 PM 93.9 °F - 48.0 °F 21% 29.68 in 10.0 mi Calm Calm - N/A   Clear
5:53 PM 93.9 °F - 50.0 °F 22% 29.68 in 10.0 mi Calm Calm - N/A   Clear
6:53 PM 86.0 °F 84.0 °F 53.1 °F 32% 29.70 in 10.0 mi SW 4.6 mph - N/A   Clear
7:53 PM 80.1 °F - 52.0 °F 38% 29.73 in 10.0 mi South 4.6 mph - N/A   Clear
8:53 PM 77.0 °F - 52.0 °F 42% 29.75 in 10.0 mi South 4.6 mph - N/A   Clear
9:53 PM 72.0 °F - 53.1 °F 51% 29.78 in 10.0 mi South 3.5 mph - N/A   Clear
10:53 PM 69.1 °F - 52.0 °F 54% 29.81 in 10.0 mi Calm Calm - N/A   Clear
11:53 PM 66.0 °F - 52.0 °F 60% 29.83 in 10.0 mi North 3.5 mph - N/A   Clear